sat.trackr.live / text

‹ back to catalog

YAOGAN-30 09C

NORAD 48425 · 2021-039C

PAYLOAD ACTIVE UNKNOWN

§ Identity

Operator
Country
PRC
Launch date
2021-05-06
Launch site
XICLF
Launch vehicle
Mass (kg)
RCS (m²)

External: N2YO · Heavens-Above · Gunter

§ Orbital elements

Epoch: 2026-09-10T05:13:34.413888Z

Period
95.81 min
Inclination
34.9946°
Eccentricity
0.0000784
Mean motion
15.03012417 rev/d
Perigee alt
557.1 km
Apogee alt
558.2 km
Semi-major
6,935.8 km
B*
1.3535e-4
RAAN
232.3240°
Arg perigee
122.3800°
Mean anomaly
237.6984°
Rev number
29,235

§ Raw data

YAOGAN-30 09C1 48425U 21039C   26253.21775942  .00001830  00000+0  13535-3 0  99942 48425  34.9946 232.3240 0000784 122.3800 237.6984 15.03012417292355

JSON: /api/v1/satellites/48425 · /tle

For live sub-satellite position, see the globe view (requires WebGL).

§ Visibility from observer

Set your observer location to see the next 7 days of passes ≥ 10°. The values pass through the URL so the page stays shareable.

No JS? Fill the form by hand. The geolocation button needs JavaScript.